Wind_Speed
4 4 4 3 1 5 6 5 8 14 9 3 11 2 5 7 2 7 20 14 12 11 12 11 10 10 9 9 10 11 11 11 10 10 11 12 12 12 12 12 12 13 13 14 15 14 14 15 15
5 5 3 1 3 7 5 7 14 7 8 15 11 7 4 4 3 17 16 16 13 12 14 12 11 10 10 9 9 9 9 10 10 12 12 12 12 12 10 10 11 12 13 14 15 16 16 14 12
7 5 3 3 3 6 6 3 7 8 15 6 5 6 4 3 12 15 17 16 14 14 14 12 10 9 9 8 9 9 9 10 10 12 12 12 12 10 11 9 10 11 12 14 15 15 15 14 13
3 3 4 4 10 5 5 11 18 13 7 3 10 8 6 7 9 14 18 16 14 14 13 10 8 9 8 9 9 10 11 10 12 12 12 12 11 9 9 10 10 12 13 14 15 14 14 14 15
5 3 3 6 10 5 11 17 13 8 9 9 4 7 13 4 11 20 18 16 14 13 11 9 8 8 8 8 8 10 11 11 12 12 12 11 10 11 11 11 11 12 14 14 13 14 13 13 13
3 1 4 6 10 11 10 10 9 9 10 11 13 17 6 10 19 19 16 15 13 11 10 9 8 9 10 9 9 11 11 12 13 13 14 14 13 13 13 13 13 14 14 14 12 12 12 12 13
3 1 4 9 11 8 6 7 6 8 10 8 18 9 9 14 18 18 16 14 12 10 10 10 10 13 11 10 10 13 14 15 16 17 17 16 16 16 16 14 14 14 13 11 10 9 10 11 12
3 0 6 4 8 4 10 6 10 8 5 13 16 6 11 19 20 18 16 14 11 9 10 11 12 11 11 13 14 17 17 18 19 19 18 18 18 17 17 16 14 13 12 11 9 9 9 9 9
3 2 4 4 8 8 15 7 4 5 16 6 5 15 20 24 21 19 17 15 12 11 11 11 11 13 15 17 19 19 18 19 19 19 20 18 18 17 16 15 14 13 11 10 8 7 7 7 8
3 1 2 3 5 9 14 12 10 10 10 8 14 19 26 24 22 20 18 15 13 12 13 15 17 18 20 21 20 19 18 19 19 18 18 17 14 13 11 10 10 9 6 4 3 3 4 6 7
1 1 3 4 8 18 15 12 6 14 6 10 28 30 25 23 21 19 16 14 13 14 17 20 21 22 21 20 19 17 17 18 18 16 12 10 10 9 8 7 8 8 6 4 5 4 5 4 6
1 4 3 9 13 15 13 12 14 2 1 15 25 25 25 21 20 20 18 16 16 18 21 23 22 21 19 18 17 15 16 17 15 14 11 11 8 6 5 11 11 8 6 4 2 1 3 3 6
1 3 6 11 13 14 13 10 11 5 14 23 24 22 22 20 19 18 17 16 17 21 25 23 20 19 17 14 15 16 15 14 11 13 10 9 8 7 9 8 6 4 5 4 5 3 2 3 4
2 11 16 11 12 10 9 7 3 8 19 22 24 21 19 19 19 17 20 19 21 25 25 22 21 15 14 14 14 14 12 11 10 10 9 6 6 6 5 2 2 2 3 4 5 7 6 3 6
6 17 11 9 7 4 12 5 0 14 19 21 21 20 19 19 18 19 19 21 22 25 25 23 18 15 15 14 12 15 13 10 10 9 7 6 4 4 4 4 3 0 2 5 6 7 8 8 10
6 5 4 6 9 9 3 2 6 17 21 21 20 19 20 20 21 20 20 22 21 24 26 23 20 16 14 13 12 13 16 13 11 7 9 8 6 6 5 5 3 5 5 6 8 10 11 13 16
3 5 6 8 7 6 9 2 9 18 20 20 21 20 19 18 19 21 23 22 23 23 25 25 22 18 15 14 13 14 18 16 13 9 8 8 9 9 8 8 8 8 8 9 10 11 13 15 17
2 4 3 6 4 10 10 7 11 20 20 21 21 20 19 20 24 22 22 22 22 24 25 26 24 21 17 14 13 13 19 16 14 12 10 9 9 8 8 8 9 11 11 12 13 14 15 15 16
4 5 4 4 2 5 8 8 11 20 20 19 21 21 22 24 22 20 21 23 23 25 26 27 26 23 21 20 18 14 16 17 16 14 14 13 13 12 12 11 11 9 10 11 11 11 13 14 18
5 5 5 4 3 3 2 9 11 21 27 27 25 25 26 25 21 22 24 25 27 27 29 30 27 24 23 23 21 19 17 18 17 15 15 15 16 18 17 16 15 14 15 13 14 14 14 15 15
12 10 7 2 3 4 6 8 11 15 21 24 24 23 25 26 26 24 26 28 28 31 31 32 30 28 26 25 23 22 22 22 20 19 18 16 15 17 19 20 18 18 19 18 17 17 14 13 13
8 6 9 5 3 4 5 5 3 10 17 23 27 27 29 28 28 26 25 30 31 32 31 32 31 29 27 25 25 26 25 25 22 20 19 17 18 19 20 19 18 19 18 18 20 18 16 13 13
1 2 5 5 3 3 1 3 3 3 10 18 25 29 29 29 28 28 28 31 32 30 28 29 32 31 27 28 26 24 26 25 23 23 22 20 18 16 15 14 10 11 10 9 8 10 11 13 12
13 13 9 5 1 4 4 5 8 3 1 1 16 27 31 28 28 28 27 25 26 27 28 27 29 31 29 29 27 26 26 24 24 23 21 20 18 15 10 9 10 10 7 6 7 7 7 7 8
2 7 0 1 2 4 3 6 10 4 5 5 13 17 27 29 27 27 30 28 27 26 26 26 25 28 29 31 30 27 25 27 27 24 22 18 12 12 15 11 7 4 4 5 5 5 6 6 7
15 5 6 8 6 4 3 6 4 2 5 7 8 11 18 24 24 23 22 21 26 26 26 24 23 23 29 32 32 31 33 29 25 24 22 17 15 17 15 5 3 2 3 4 5 5 4 4 5
7 8 3 3 2 4 4 6 8 4 2 7 11 11 11 9 8 14 17 14 18 24 24 24 22 19 18 19 22 28 32 33 28 21 12 11 18 13 10 5 1 2 4 5 6 6 6 5 5
5 6 4 3 6 9 7 4 9 7 4 4 6 7 10 7 10 13 17 17 18 21 22 22 16 14 23 16 24 17 2 8 8 10 17 17 15 14 12 12 8 3 10 10 7 5 3 3 5
5 4 2 2 3 11 14 6 2 3 3 4 3 4 6 7 6 11 12 11 13 13 12 11 15 7 18 19 18 13 17 8 5 12 18 17 17 13 6 7 9 11 5 2 2 1 3 7 8
2 10 10 8 6 4 5 5 1 2 6 8 7 7 8 9 12 13 13 9 5 6 7 12 10 22 23 15 6 6 17 14 15 11 9 8 7 9 6 6 7 7 4 1 1 3 6 8 10
Wind_Direction
107 50 37 21 84 85 73 64 116 125 129 124 146 173 105 58 39 111 143 146 147 149 140 128 122 116 116 114 109 108 108 105 111 111 106 109 106 103 104 108 108 105 100 92 93 95 99 96 92
111 91 30 26 84 100 74 116 132 130 124 127 106 104 66 79 99 137 140 146 147 142 134 125 121 122 118 118 120 122 114 112 109 112 111 110 110 104 104 112 111 108 102 103 98 97 100 100 90
97 39 27 56 73 88 115 153 118 108 136 124 109 82 68 94 126 135 145 144 144 138 131 127 124 124 128 128 130 128 129 122 117 115 114 115 114 109 113 116 113 114 111 110 105 105 99 91 78
83 42 49 80 85 65 127 146 133 135 125 99 125 82 79 128 131 146 144 143 143 138 133 134 131 131 136 133 139 128 119 126 119 116 111 114 113 120 117 116 117 121 120 116 111 105 95 85 76
48 54 72 93 76 88 118 137 143 132 131 146 155 114 116 140 151 146 143 143 146 141 135 134 132 139 135 129 135 148 132 131 127 119 114 118 119 116 114 116 120 121 122 117 114 103 92 81 74
57 48 105 96 104 116 129 143 124 113 122 123 121 122 108 140 148 145 145 144 146 144 146 144 139 134 129 123 125 143 141 132 130 125 118 114 112 109 109 112 120 124 127 119 112 101 92 81 68
78 57 94 120 128 137 145 126 115 123 132 122 139 113 134 147 155 146 148 147 150 155 156 153 145 143 133 124 135 136 134 131 128 119 117 114 110 105 102 104 110 119 127 122 111 99 83 70 59
79 160 123 114 158 128 141 110 122 121 100 132 140 149 158 164 156 152 150 154 156 156 149 146 148 153 151 145 139 131 131 128 123 120 114 109 104 100 96 98 102 109 111 106 98 84 67 54 45
53 57 128 149 173 147 152 134 92 118 131 125 188 153 154 156 155 158 160 161 160 155 151 150 158 148 138 138 132 130 129 125 123 116 112 107 103 101 103 103 103 100 96 92 84 70 50 31 25
46 79 163 175 157 151 159 143 131 147 133 111 121 139 151 157 161 165 166 164 162 155 148 148 147 141 137 134 131 131 130 130 124 118 115 114 110 106 105 113 106 99 97 96 80 55 54 40 12
79 53 355 202 145 149 145 134 131 148 176 181 157 152 158 162 166 170 168 166 159 155 151 149 146 140 137 135 134 135 135 133 126 120 119 120 119 114 118 104 111 96 92 118 94 62 46 66 40
218 275 270 136 143 145 147 129 132 126 175 157 158 156 159 169 173 173 170 167 164 158 155 152 148 145 144 141 140 140 138 135 131 129 118 116 112 122 121 111 104 101 89 71 68 120 346 312 308
214 355 78 134 131 134 132 139 135 79 133 147 156 161 167 171 176 177 173 171 167 165 162 159 156 153 154 152 151 148 146 140 134 139 116 120 109 122 125 128 131 109 76 79 85 67 312 359 43
359 111 110 113 113 126 128 129 137 135 147 152 162 172 176 178 177 181 180 178 173 171 170 168 161 164 167 165 163 162 160 158 155 155 157 133 135 140 156 122 126 72 40 25 30 18 37 17 353
126 105 94 108 111 105 129 154 163 154 163 160 173 177 182 188 191 191 187 184 179 177 178 177 176 174 174 169 172 180 179 181 168 172 176 188 172 180 178 182 172 260 342 327 336 341 338 333 333
123 94 135 166 163 164 201 238 148 167 170 172 179 186 191 196 198 198 195 190 187 186 184 181 181 180 182 195 196 195 195 193 193 204 201 207 222 223 227 234 253 282 305 315 316 315 316 314 315
43 156 153 177 197 166 200 223 175 177 182 182 187 193 200 202 209 207 202 199 198 197 195 192 193 196 201 209 215 212 205 201 202 207 218 231 233 240 241 248 260 276 288 297 301 305 309 310 307
206 179 176 179 186 190 200 233 179 185 190 194 196 199 206 214 216 213 210 207 210 207 207 206 205 205 208 210 216 210 200 207 214 217 226 229 229 239 250 256 260 263 271 278 285 292 302 310 313
229 248 184 162 89 195 226 249 200 193 198 200 204 206 213 220 223 224 222 219 216 218 217 215 215 216 214 213 209 217 218 220 224 237 237 236 241 243 249 259 266 272 271 266 265 278 293 305 310
235 254 246 128 92 209 249 237 198 198 207 206 202 206 216 225 224 228 230 230 228 225 222 218 220 222 220 218 219 223 229 231 233 241 244 243 250 247 251 254 260 263 270 268 270 277 287 301 305
259 269 263 305 149 119 297 266 206 208 217 218 219 216 217 223 227 226 227 234 236 236 231 228 227 229 227 227 228 234 240 241 242 247 246 249 256 252 256 258 259 262 269 271 272 272 279 285 296
258 258 249 238 240 280 357 297 268 219 216 213 218 219 220 220 228 232 232 237 241 243 240 234 232 231 231 231 237 242 245 242 241 245 246 252 258 261 263 258 260 264 270 263 263 270 279 284 288
312 177 139 130 124 285 167 279 273 259 225 221 223 221 223 223 223 229 231 238 247 243 239 237 233 231 232 229 238 244 241 237 243 250 246 252 259 256 261 262 269 276 278 276 266 267 272 284 290
123 107 88 74 78 258 240 227 286 259 136 269 233 232 227 225 221 228 234 236 240 238 237 235 233 232 234 231 236 243 237 233 241 244 248 251 256 255 261 270 277 280 269 270 279 282 285 287 295
188 172 246 236 218 271 120 191 254 252 313 307 292 262 237 226 227 227 233 233 232 228 230 233 234 233 234 235 237 240 237 236 240 243 247 255 255 275 284 284 274 260 271 278 280 286 290 296 299
194 225 248 250 239 278 133 232 245 309 319 343 342 292 239 227 227 226 226 228 233 225 227 233 236 234 237 234 236 241 239 238 239 242 247 248 265 271 259 226 249 275 312 322 319 314 315 317 320
167 207 267 240 88 266 235 265 268 240 300 7 18 37 61 95 134 183 184 190 212 222 223 221 226 221 231 236 251 253 248 245 235 236 230 268 270 228 193 186 269 356 42 34 10 351 338 346 356
242 133 194 213 247 252 230 250 260 218 206 36 16 53 70 108 145 163 191 203 211 213 216 205 172 111 41 23 2 350 147 206 193 312 295 282 232 207 205 200 199 236 304 312 318 344 2 8 357
180 209 189 234 255 266 274 263 229 250 194 151 122 104 103 104 141 156 176 189 197 203 210 195 157 54 34 356 358 30 299 318 270 247 258 232 227 228 239 281 274 264 237 160 150 2 354 344 344
249 235 215 240 231 245 286 270 65 137 147 145 154 147 125 133 129 131 135 139 158 203 173 151 206 285 309 292 154 247 249 270 259 221 215 214 233 262 239 191 189 169 169 180 21 352 347 351 345
Height
1521 1521 1521 1521 1526 1521 1533 1538 1533 1539 1542 1545 1548 1549 1550 1553 1553 1558 1560 1562 1565 1566 1567 1568 1569 1569 1569 1570 1570 1571 1571 1572 1573 1573 1574 1574 1574 1575 1575 1575 1575 1575 1575 1575 1574 1575 1576 1577 1577
1521 1522 1522 1521 1526 1533 1542 1534 1538 1539 1544 1547 1549 1551 1552 1556 1556 1557 1561 1563 1566 1567 1569 1570 1570 1571 1571 1572 1572 1573 1573 1574 1574 1574 1575 1576 1576 1577 1577 1577 1577 1577 1577 1577 1577 1577 1578 1579 1580
1522 1521 1522 1523 1527 1536 1541 1540 1541 1545 1546 1548 1551 1553 1554 1558 1558 1560 1562 1564 1566 1569 1570 1571 1571 1571 1572 1572 1573 1574 1575 1575 1575 1576 1576 1577 1577 1578 1578 1578 1579 1579 1579 1579 1579 1580 1581 1582 1582
1522 1524 1526 1527 1534 1534 1534 1538 1543 1545 1548 1549 1551 1554 1557 1559 1561 1561 1563 1566 1568 1570 1571 1571 1572 1572 1573 1574 1575 1575 1575 1576 1577 1578 1578 1578 1579 1579 1580 1580 1580 1580 1580 1581 1581 1582 1583 1583 1584
1522 1523 1527 1531 1534 1534 1536 1540 1544 1544 1546 1550 1551 1556 1558 1561 1561 1563 1565 1568 1570 1571 1572 1572 1573 1573 1574 1575 1575 1576 1576 1577 1578 1579 1579 1580 1581 1581 1581 1581 1581 1581 1582 1582 1583 1584 1586 1586 1587
1524 1526 1530 1535 1537 1536 1539 1542 1544 1545 1548 1551 1553 1554 1561 1561 1563 1565 1567 1569 1570 1571 1572 1573 1573 1575 1576 1576 1576 1576 1577 1578 1579 1580 1581 1582 1582 1583 1583 1583 1583 1583 1584 1585 1586 1587 1588 1589 1589
1525 1526 1531 1531 1536 1536 1537 1542 1543 1545 1548 1551 1553 1554 1561 1563 1564 1566 1568 1569 1571 1572 1573 1573 1575 1576 1577 1577 1577 1578 1579 1580 1581 1582 1583 1584 1585 1585 1586 1586 1586 1586 1586 1587 1588 1589 1590 1591 1591
1526 1528 1530 1530 1535 1537 1538 1542 1545 1545 1548 1551 1553 1555 1560 1561 1564 1566 1568 1570 1572 1573 1574 1575 1576 1577 1577 1578 1579 1580 1582 1583 1584 1585 1586 1587 1587 1588 1589 1589 1590 1590 1590 1590 1591 1592 1592 1593 1593
1526 1527 1532 1530 1532 1535 1538 1540 1546 1547 1548 1551 1553 1554 1557 1560 1563 1566 1569 1570 1572 1573 1574 1575 1577 1577 1578 1579 1580 1582 1584 1585 1587 1588 1588 1590 1590 1591 1591 1592 1592 1593 1593 1593 1593 1594 1594 1594 1594
1528 1528 1528 1526 1528 1532 1537 1540 1544 1547 1549 1552 1553 1555 1558 1561 1563 1566 1569 1571 1572 1573 1574 1576 1577 1579 1580 1581 1582 1584 1585 1586 1589 1590 1591 1592 1593 1593 1593 1594 1594 1594 1594 1594 1594 1595 1595 1595 1595
1529 1528 1526 1526 1529 1534 1538 1542 1543 1546 1549 1550 1550 1553 1558 1561 1564 1567 1569 1571 1573 1574 1575 1577 1579 1581 1582 1583 1585 1587 1587 1589 1591 1592 1593 1594 1594 1595 1595 1595 1595 1596 1595 1595 1595 1595 1596 1596 1595
1529 1528 1528 1529 1531 1535 1539 1541 1544 1546 1546 1548 1555 1557 1559 1562 1564 1566 1569 1571 1573 1575 1577 1579 1581 1583 1584 1585 1587 1589 1590 1591 1592 1593 1594 1595 1595 1596 1596 1597 1597 1596 1597 1596 1596 1596 1596 1595 1595
1528 1528 1528 1532 1534 1538 1540 1543 1544 1547 1548 1551 1555 1559 1561 1563 1565 1567 1570 1571 1573 1576 1579 1581 1583 1585 1587 1588 1589 1591 1592 1593 1594 1595 1595 1595 1596 1597 1597 1598 1598 1598 1597 1597 1596 1596 1595 1594 1595
1529 1529 1532 1536 1538 1542 1543 1545 1546 1550 1551 1554 1556 1560 1562 1564 1565 1568 1569 1571 1573 1576 1579 1582 1584 1586 1588 1590 1591 1592 1594 1595 1596 1597 1597 1597 1598 1598 1599 1600 1600 1599 1599 1598 1597 1596 1596 1595 1595
1530 1530 1534 1539 1540 1543 1544 1547 1547 1550 1554 1555 1558 1559 1562 1564 1566 1568 1570 1571 1573 1576 1579 1582 1585 1587 1588 1590 1592 1593 1595 1596 1596 1597 1597 1597 1598 1598 1599 1599 1600 1600 1600 1599 1598 1597 1596 1596 1595
1531 1532 1541 1540 1540 1543 1544 1545 1547 1549 1552 1555 1558 1560 1561 1563 1565 1568 1570 1572 1575 1577 1579 1582 1585 1587 1589 1590 1592 1594 1595 1596 1596 1597 1598 1598 1598 1598 1599 1599 1599 1599 1599 1598 1597 1597 1596 1595 1593
1534 1542 1542 1541 1538 1540 1542 1544 1545 1549 1551 1553 1556 1559 1562 1564 1565 1567 1569 1571 1574 1576 1579 1581 1584 1586 1588 1590 1591 1593 1594 1595 1597 1597 1597 1598 1598 1598 1598 1599 1598 1598 1598 1597 1596 1595 1594 1593 1591
1540 1541 1540 1541 1539 1539 1542 1541 1543 1546 1549 1551 1553 1557 1561 1562 1561 1565 1568 1571 1574 1576 1578 1580 1582 1584 1587 1589 1590 1591 1593 1595 1595 1596 1597 1597 1597 1597 1597 1597 1597 1596 1596 1595 1595 1594 1592 1591 1589
1531 1536 1538 1537 1539 1539 1540 1539 1540 1543 1546 1548 1551 1553 1557 1558 1561 1564 1567 1569 1572 1575 1577 1579 1581 1584 1585 1587 1589 1590 1592 1593 1594 1595 1596 1596 1596 1596 1595 1595 1595 1594 1594 1594 1592 1591 1590 1590 1588
1528 1535 1538 1539 1540 1538 1541 1536 1535 1539 1538 1540 1544 1548 1551 1555 1559 1561 1563 1566 1568 1571 1574 1576 1578 1582 1585 1587 1588 1589 1591 1592 1593 1593 1594 1594 1594 1594 1594 1594 1593 1592 1590 1589 1589 1588 1587 1586 1585
1526 1531 1532 1538 1539 1540 1539 1532 1532 1533 1536 1539 1540 1543 1546 1549 1552 1555 1558 1560 1563 1566 1569 1572 1576 1579 1582 1585 1587 1587 1588 1590 1591 1592 1592 1592 1592 1592 1592 1591 1590 1589 1588 1587 1587 1586 1585 1585 1584
1535 1528 1530 1535 1540 1548 1541 1550 1532 1527 1528 1532 1534 1536 1537 1540 1545 1549 1553 1555 1557 1559 1564 1568 1572 1575 1579 1582 1584 1585 1585 1587 1589 1590 1590 1590 1589 1589 1588 1588 1587 1586 1585 1584 1584 1583 1582 1583 1582
1531 1528 1532 1536 1541 1544 1547 1550 1525 1526 1524 1524 1527 1530 1533 1534 1537 1541 1545 1547 1551 1556 1559 1563 1567 1570 1574 1577 1579 1580 1581 1583 1584 1586 1586 1586 1585 1584 1583 1583 1583 1583 1581 1581 1581 1580 1580 1579 1579
1529 1533 1537 1540 1543 1553 1537 1544 1522 1519 1521 1519 1521 1523 1525 1530 1530 1534 1538 1544 1547 1551 1555 1559 1562 1566 1569 1572 1574 1575 1577 1580 1580 1582 1583 1582 1582 1580 1582 1582 1581 1581 1580 1579 1578 1578 1578 1578 1577
1529 1531 1544 1554 1556 1545 1545 1549 1525 1514 1518 1522 1521 1519 1517 1522 1527 1530 1532 1536 1540 1545 1550 1554 1558 1562 1565 1567 1569 1571 1573 1575 1576 1577 1577 1579 1579 1578 1577 1579 1579 1579 1579 1578 1577 1576 1575 1575 1575
1526 1525 1534 1556 1549 1536 1546 1539 1518 1517 1519 1520 1519 1513 1513 1518 1522 1527 1530 1533 1537 1542 1547 1552 1556 1561 1563 1564 1564 1566 1567 1568 1569 1572 1573 1575 1575 1574 1574 1577 1580 1580 1578 1577 1577 1576 1574 1573 1573
1527 1532 1518 1533 1545 1544 1528 1524 1513 1516 1517 1519 1519 1518 1515 1517 1520 1524 1526 1531 1534 1540 1544 1548 1552 1557 1560 1559 1562 1562 1562 1562 1560 1564 1568 1568 1571 1567 1571 1575 1578 1579 1578 1576 1575 1575 1574 1573 1573
1514 1515 1529 1531 1548 1549 1527 1530 1512 1512 1512 1520 1522 1521 1520 1520 1521 1524 1526 1529 1533 1536 1539 1541 1547 1555 1564 1567 1565 1567 1555 1559 1540 1551 1561 1563 1567 1567 1569 1569 1570 1573 1576 1574 1573 1573 1573 1572 1571
1516 1517 1522 1521 1525 1526 1527 1514 1506 1510 1513 1519 1523 1524 1524 1524 1525 1526 1529 1531 1534 1535 1537 1534 1545 1551 1550 1560 1565 1563 1563 1560 1551 1554 1560 1564 1566 1567 1567 1570 1571 1571 1571 1570 1571 1571 1572 1573 1571
1504 1503 1506 1518 1525 1524 1519 1512 1513 1513 1517 1520 1523 1524 1525 1526 1527 1528 1531 1534 1536 1536 1537 1540 1540 1545 1543 1550 1548 1550 1555 1558 1560 1557 1562 1566 1567 1565 1567 1567 1568 1568 1569 1568 1568 1569 1571 1569 1570